TimeCDT,TemperatureF,Dew PointF,Humidity,Sea Level PressureIn,VisibilityMPH,Wind Direction,Wind SpeedMPH,Gust SpeedMPH,PrecipitationIn,Events,Conditions,WindDirDegrees,DateUTC
12:30 AM,51.8,46.4,82,30.04,10.0,ENE,13.8,20.7,0.00,Rain,Light Rain,60,2013-10-04 05:30:00
12:40 AM,51.8,46.4,82,30.04,7.0,ENE,12.7,-,0.00,Rain,Light Rain,60,2013-10-04 05:40:00
12:55 AM,51.1,46.9,86,30.07,6.0,NE,15.0,-,0.00,Rain,Light Rain,50,2013-10-04 05:55:00
1:52 AM,51.8,46.4,82,30.04,10.0,East,12.7,-,0.01,,Light Drizzle,80,2013-10-04 06:52:00
1:55 AM,51.1,46.9,86,30.06,10.0,ENE,15.0,23.0,0.01,,Light Drizzle,70,2013-10-04 06:55:00
2:22 AM,51.8,46.4,82,30.04,10.0,East,13.8,-,0.00,,Overcast,80,2013-10-04 07:22:00
2:37 AM,51.8,46.4,82,30.04,10.0,East,15.0,-,0.00,,Overcast,80,2013-10-04 07:37:00
2:55 AM,51.1,46.9,86,30.06,10.0,East,12.7,-,0.00,,Overcast,80,2013-10-04 07:55:00
3:02 AM,51.8,46.4,82,30.03,10.0,East,16.1,20.7,N/A,,Overcast,80,2013-10-04 08:02:00
3:18 AM,51.8,46.4,82,30.03,10.0,ENE,12.7,21.9,N/A,,Overcast,70,2013-10-04 08:18:00
3:55 AM,51.1,46.9,86,30.07,10.0,ENE,11.5,-,N/A,,Overcast,70,2013-10-04 08:55:00
4:52 AM,51.8,46.4,82,30.07,10.0,East,12.7,-,N/A,,Overcast,80,2013-10-04 09:52:00
4:55 AM,51.1,46.9,86,30.09,10.0,ENE,10.4,-,N/A,,Overcast,70,2013-10-04 09:55:00
5:55 AM,51.1,46.0,83,30.09,10.0,ENE,13.8,-,N/A,,Overcast,60,2013-10-04 10:55:00
6:55 AM,51.1,46.0,83,30.11,10.0,ENE,11.5,20.7,N/A,,Overcast,60,2013-10-04 11:55:00
7:24 AM,51.8,46.4,82,30.09,10.0,ENE,12.7,-,N/A,,Overcast,60,2013-10-04 12:24:00
7:55 AM,52.0,46.0,80,30.12,10.0,ENE,15.0,-,N/A,,Overcast,60,2013-10-04 12:55:00
8:55 AM,52.0,46.0,80,30.12,10.0,ENE,15.0,-,N/A,,Overcast,70,2013-10-04 13:55:00
9:28 AM,53.6,46.4,77,30.11,10.0,ENE,17.3,25.3,N/A,,Overcast,70,2013-10-04 14:28:00
9:55 AM,53.1,46.9,80,30.14,10.0,ENE,16.1,25.3,N/A,,Overcast,70,2013-10-04 14:55:00
10:55 AM,53.1,46.0,77,30.14,10.0,ENE,19.6,28.8,N/A,,Overcast,70,2013-10-04 15:55:00
11:55 AM,54.0,46.9,77,30.14,10.0,ENE,21.9,27.6,N/A,,Overcast,70,2013-10-04 16:55:00
12:55 PM,55.0,46.0,72,30.14,10.0,East,23.0,32.2,N/A,,Overcast,80,2013-10-04 17:55:00
1:19 PM,55.4,46.4,72,30.12,10.0,East,19.6,29.9,N/A,,Overcast,80,2013-10-04 18:19:00
1:55 PM,55.0,46.0,72,30.14,10.0,East,17.3,28.8,N/A,,Overcast,80,2013-10-04 18:55:00
2:55 PM,53.1,45.0,74,30.12,10.0,East,18.4,29.9,N/A,,Overcast,80,2013-10-04 19:55:00
3:55 PM,53.1,44.1,71,30.13,10.0,ENE,20.7,31.1,N/A,,Overcast,70,2013-10-04 20:55:00
4:13 PM,53.6,44.6,72,30.10,10.0,East,20.7,27.6,N/A,,Overcast,80,2013-10-04 21:13:00
4:55 PM,52.0,43.0,71,30.12,10.0,East,18.4,28.8,N/A,,Overcast,80,2013-10-04 21:55:00
5:17 PM,51.8,42.8,71,30.09,10.0,East,15.0,24.2,N/A,,Overcast,80,2013-10-04 22:17:00
5:55 PM,51.1,43.0,74,30.11,10.0,ENE,24.2,33.4,N/A,,Overcast,70,2013-10-04 22:55:00
6:55 PM,50.0,43.0,77,30.13,10.0,East,21.9,29.9,N/A,,Overcast,80,2013-10-04 23:55:00
7:55 PM,50.0,43.0,77,30.10,10.0,ENE,25.3,33.4,N/A,,Overcast,70,2013-10-05 00:55:00
8:55 PM,51.1,41.0,68,30.11,10.0,East,21.9,31.1,0.00,Rain,Light Rain,80,2013-10-05 01:55:00
9:55 PM,51.1,41.0,68,30.10,10.0,ENE,25.3,32.2,0.00,Rain,Light Rain,70,2013-10-05 02:55:00
10:43 PM,51.8,39.2,62,30.06,10.0,East,26.5,34.5,0.00,,Overcast,80,2013-10-05 03:43:00
10:55 PM,51.1,41.0,68,30.08,8.0,East,20.7,34.5,0.00,,Overcast,80,2013-10-05 03:55:00
11:55 PM,50.0,43.0,77,30.07,6.0,ENE,27.6,40.3,0.00,Rain,Light Rain,70,2013-10-05 04:55:00